Regional Weather Roundup
Issued by NWS Upton, NY

Current Version | Previous Version | Graphics & Text | Print | Product List | Glossary Off
Versions: 1 2 3 4 5 6 7 8 9 10 11 12 13 14 15 16 17 18 19 20 21 22 23 24 25 26 27 28 29 30 31 32 33 34 35 36 37 38 39 40 41 42 43 44 45 46 47 48 49 50

000
ASUS41 KOKX 250705
RWROKX

REGIONAL WEATHER ROUNDUP
NATIONAL WEATHER SERVICE NEW YORK NY
200 AM EST SUN JAN 25 2015

NOTE: "FAIR" INDICATES FEW OR NO CLOUDS BELOW 12,000 FEET WITH NO
SIGNIFICANT WEATHER AND/OR OBSTRUCTIONS TO VISIBILITY.

NYZ071-072-176-178-NJZ106-104-250800-
NEW YORK CITY METRO AREA


CITY           SKY/WX    TMP DP  RH WIND       PRES   REMARKS
CENTRAL PARK   CLOUDY    37  24  59 W7        29.56R WCI  32
LAGUARDIA APRT MOCLDY    36  25  64 W15G24    29.53R WCI  27
KENNEDY INTL   MOCLDY    36  25  64 W14       29.55R WCI  27
NEWARK/LIBERTY MOCLDY    35  27  72 W12       29.55R WCI  27
BRNX BOT. GARD   N/A    N/A N/A N/A W5        29.56R
TETERBORO      CLOUDY    34  25  69 SW6       29.54R WCI  29
$$

NYZ177-179-078>081-250800-
LONG ISLAND NEW YORK

CITY           SKY/WX    TMP DP  RH WIND       PRES   REMARKS
FARMINGDALE    CLOUDY    36  25  64 W13       29.53R WCI  27
ISLIP          MOCLDY    34  25  69 W13       29.49R WCI  25
SHIRLEY        CLOUDY    35  26  69 W9        29.52R WCI  28
WESTHAMPTON    CLOUDY    33  26  75 W7        29.51R WCI  27
MONTAUK POINT    N/A     36  26  67 W13G22    29.47R WCI  27
$$

NYZ052-065-067-250800-
HUDSON VALLEY

CITY           SKY/WX    TMP DP  RH WIND       PRES   REMARKS
WHITE PLAINS   PTCLDY    34  24  67 W17G23    29.49R WCI  23
NEWBURGH       NOT AVBL
MONTGOMERY     CLOUDY    34  25  69 W6        29.49R WCI  29
POUGHKEEPSIE   MOCLDY    34  25  69 SW8       29.49R WCI  27
ALBANY         FLURRIES  34  25  69 W10       29.44R WCI  26
$$

NJZ001-105-106-008-010-013-015-019>022-104-250800-
NEW JERSEY

CITY           SKY/WX    TMP DP  RH WIND       PRES   REMARKS
NEWARK/LIBERTY MOCLDY    35  27  72 W12       29.55R WCI  27
TETERBORO      CLOUDY    34  25  69 SW6       29.54R WCI  29
CALDWELL       CLOUDY    34  25  69 SW3       29.55R
MORRISTOWN     MOCLDY    37  27  65 W10       29.56R WCI  30
SOMERVILLE     MOCLDY    35  24  64 W7        29.57R WCI  29
SUSSEX         LGT RAIN  34  24  67 VRB5      29.52R WCI  30
ANDOVER          N/A     33  25  72 VRB5      29.54R WCI  29
TRENTON        MOCLDY    34  24  67 W10       29.60R WCI  26
MILLVILLE      MOCLDY    33  28  81 W7        29.65R WCI  27
ATLANTIC CITY  CLOUDY    33  27  78 W8        29.64R WCI  26
WRIGHTSTOWN    MOCLDY    34  26  72 W12       29.60R WCI  25
TOMS RIVER     CLOUDY    34  27  75 W14       29.60R WCI  24
BELMAR         CLOUDY    36  23  60 W13G18    29.57R WCI  27
$$

PAZ047>061-062-071-250800-
EASTERN PENNSYLVANIA

CITY           SKY/WX    TMP DP  RH WIND       PRES   REMARKS
PHILADELPHIA   MOCLDY    36  26  67 W12       29.65R WCI  28
ALLENTOWN      CLOUDY    34  24  67 W8        29.59R WCI  27
SCRANTON       CLOUDY    32  23  69 SW10      29.53R WCI  24
$$

CTZ002-004>006-009-010-012-RIZ004-006-007-MAZ004-011-015-250800-
SOUTHERN NEW ENGLAND
 IN CT

CITY           SKY/WX    TMP DP  RH WIND       PRES   REMARKS
BRADLEY INTL   MOCLDY    33  24  69 W6        29.43R WCI  28
HARTFORD       CLOUDY    31  25  78 S7        29.47R WCI  24
DANBURY        PTCLDY    31  22  69 W9        29.49R WCI  23
WTRBRY/OXFORD  PTCLDY    28  19  69 W3        29.45R
BRIDGEPORT     MOCLDY    34  26  72 W10       29.49R WCI  26
MERIDEN        FAIR      26  21  81 CALM      29.48R
NEW HAVEN      CLOUDY    33  27  78 SW5       29.49R WCI  29
CHESTER        FAIR      32  27  80 W6        29.46R WCI  26
GROTON         CLOUDY    32  25  75 VRB6      29.46R WCI  26
WILLIMANTIC    CLOUDY    32  25  75 W5        29.45R WCI  27

 IN RI

CITY           SKY/WX    TMP DP  RH WIND       PRES   REMARKS
PROVIDENCE     CLEAR     31  25  78 W12       29.40R WCI  22
BLOCK ISLAND   MOCLDY    34  25  69 W14G26    29.43R WCI  24
WESTERLY       CLOUDY    33  26  75 VRB7      29.45R WCI  27

 IN MA

CITY           SKY/WX    TMP DP  RH WIND       PRES   REMARKS
BOSTON         PTCLDY    32  25  75 W15G22    29.34R WCI  22
WORCESTER      CLEAR     27  23  85 W21       29.33R WCI  13
WESTFIELD      CLOUDY    33  24  69 W10       29.41R WCI  25
PROVINCETOWN   CLEAR     34  27  75 W16G25    29.35R WCI  23
NANTUCKET      PTCLDY    35  29  78 W20       29.39R WCI  24
$$

ANZ330-335-338-340-345-350-353-355-250800-
COASTAL MARINE OBSERVATIONS


STATION/POSITION TIME  SKY/WX   TEMP    WIND        PRES    VSBY  WAVE
                                AIR SEA DIR/SP/G                  HT/PER
                 (UTC)          (F)     (DEG/KT/KT) (MB)    (MI)  (FT/S)
NY HARB ENTRANCE 0700            38 42  270/ 19/ 25  999.9          4/11
4S FIRE IS       0700               38                N/A           6/11
20S FIRE ISLAND  0600               41               998.8          8/13
23SW MTP         0700                                 N/A           8/12
HUDSON CANYON    NOT AVBL
EXECUTION ROCKS  0700            36 35  280/ 16/ 21   N/A
WESTERN LI SOUND 0700            36     270/ 14/ 17   N/A           1/ 3
CENTRAL LI SOUND 0600            35 37  270/ 16/ 19   N/A           2/ 4
EASTERN LI SOUND NOT AVBL
ROBBINS REEF     0600            36     270/  9/ 11  999.0
$$


>>>>>>>>>>>>>>>>>>>>>>>>>>>> KEY <<<<<<<<<<<<<<<<<<<<<<<<<<<
>                                                          <
>     SKY/WX - SKY CONDITION/PRESENT WEATHER               <
>     TMP    - TEMPERATURE IN FAHRENHEIT                   <
>     DP     - DEWPOINT IN FAHRENHEIT                      <
>     RH     - RELATIVE HUMIDITY IN PERCENT                <
>     WIND   - DIRECTION AND SPEED IN MPH                  <
>     PRES   - MEAN SEA LEVEL PRESSURE IN INCHES OF HG     <
>     WCI    - WIND CHILL INDEX                            <
>     VSB    - VISIBILITY IN MILES                         <
>     HX     - HEAT INDEX                                  <
>     TC     - TEMPERATURE IN CELSIUS                      <
>     VRB    - VARIABLE WIND DIRECTION                     <
>                                                          <
>>>>>>>>>>>>>>>>>>>>>>>>>>>> KEY <<<<<<<<<<<<<<<<<<<<<<<<<<<




USA.gov is the U.S. government's official web portal to all federal, state and local government web resources and services.